Regional Weather Roundup
Issued by NWS

Home | Current Version | Previous Version | Graphics & Text | Print | Product List | Glossary On
Versions: 1 2 3 4 5 6 7 8 9 10 11 12 13 14 15 16 17 18 19 20 21 22 23 24 25 26 27 28 29 30 31 32 33 34 35 36 37 38 39 40 41 42 43 44 45 46 47 48 49 50
464
ASUS45 KABQ 210201
RWRNM
NEW MEXICO REGIONAL WEATHER ROUNDUP
NATIONAL WEATHER SERVICE ALBUQUERQUE NM
800 PM MDT WED SEP 20 2017

NOTE: "FAIR" MEANS FEW OR NO CLOUDS BELOW 12,000 FEET AGL WITH NO
       SIGNIFICANT WEATHER OR OBSTRUCTIONS TO VISION.

      THIS PRODUCT IS RELEASED AS TWO VERSIONS.  ONE VERSION NEAR
      THE TOP OF THE HOUR CONTAINING PRELIMINARY DATA FROM ALBUQUERQUE
      AND OTHER STATIONS.  A FINAL VERSION WITH ADDITIONAL DATA IS
      ISSUED ABOUT 10 MINUTES AFTER THE HOUR.

NMZ501-503-504-510>518-210300-
NORTHWEST PLATEAU/NORTHCENTRAL MOUNTAINS

CITY           SKY/WX    TMP DP  RH WIND       PRES   REMARKS
FARMINGTON     FAIR      71  24  17 SW7       29.92R
LOS ALAMOS     FAIR      67  21  17 SW6       30.11R
SANTA FE       FAIR      67  24  19 E6        30.03S
TAOS           FAIR      64  19  17 SW10      30.10R
ANGEL FIRE     FAIR      55  22  27 S9        30.17R

$$
NMZ402-403-502-505>509-210300-
WESTCENTRAL MOUNTAINS/SOUTHWEST MOUNTAINS

CITY           SKY/WX    TMP DP  RH WIND       PRES   REMARKS
GALLUP         FAIR      70  27  20 SW10      30.04S
GRANTS         FAIR      69  22  16 W8        30.06S
SILVER CITY    FAIR      73  41  32 W6        30.04R

$$
NMZ407-409-411-412-210300-
SOUTHERN DESERTS

CITY           SKY/WX    TMP DP  RH WIND       PRES   REMARKS
DEMING         FAIR      79  45  29 W7        29.95R
LAS CRUCES     FAIR      79  41  26 W6        29.98R
HOLLOMAN AFB   CLEAR     80  38  22 S7        29.96R
ALAMOGORDO     FAIR      73  36  25 SE8       29.95R
T OR C         FAIR      83  37  19 SW12      29.94R

$$
NMZ519>523-210300-
CENTRAL VALLEYS/CENTRAL HIGHLANDS

CITY           SKY/WX    TMP DP  RH WIND       PRES   REMARKS
ALBUQUERQUE    FAIR      75  21  13 S8        29.96R
DOUBLE EAGLE   CLEAR     72  27  18 S10       29.99S
CLINES CORNERS FAIR      62  19  19 SW13      30.11R
BELEN          FAIR      77  25  14 S10       29.95R
SOCORRO        FAIR      77  27  15 SW6       29.94R

$$
NMZ524>526-539-540-210300-
SOUTHCENTRAL MOUNTAINS

CITY           SKY/WX    TMP DP  RH WIND       PRES   REMARKS
RUIDOSO        FAIR      66  34  30 SW14      30.15R

$$
NMZ527>531-210300-
NORTHEAST HIGHLANDS/NORTHEAST PLAINS

CITY           SKY/WX    TMP DP  RH WIND       PRES   REMARKS
LAS VEGAS      FAIR      60  24  25 SW9       30.08R
RATON          FAIR      63  34  33 W7        30.02R
CLAYTON        FAIR      58  41  53 S12       29.96S

$$
NMZ532>537-210300-
EASTCENTRAL PLAINS

CITY           SKY/WX    TMP DP  RH WIND       PRES   REMARKS
SANTA ROSA     FAIR      75  27  17 SW6       29.93R
TUCUMCARI      FAIR      67  41  38 E8        29.88R
CANNON AFB     CLEAR     70  43  37 E9        29.95R
CLOVIS AIRPORT FAIR      67  48  50 E9        29.94R

$$
NMZ028-029-538-210300-
SOUTHEAST PLAINS

CITY           SKY/WX    TMP DP  RH WIND       PRES   REMARKS
ROSWELL        FAIR      84  36  18 S12       29.86R
ARTESIA        FAIR      82  39  21 SW12      29.88R
CARLSBAD       FAIR      83  37  19 SW12      29.86R
HOBBS          FAIR      77  45  31 SW5       29.91R


$$




USA.gov is the U.S. government's official web portal to all federal, state and local government web resources and services.